Location: Asheville, NC
(35.6000°N, 82.5500°W)
Time: 19:46:51
(UTC-04:00)

Vanguard 2 - Pass Details

Date: 17 March 2018
Orbit: 553 x 2939 km, 32.9° (Epoch: 23 June)

Event Time Altitude Azimuth Distance (km) Brightness Sun altitude
Rises 15:17:44 0° 279° (W) 6,310 12.5 46.6°
Reaches altitude 10° 15:21:38 10° 278° (W) 5,485 12.3 46.1°
Maximum altitude 15:38:56 68° 200° (SSW) 3,063 11.9 43.8°
Drops below altitude 10° 15:54:55 10° 121° (ESE) 5,110 11.7 41.4°
Sets 15:58:25 0° 119° (ESE) 5,876 11.9 40.9°
